This is the latest recevied weather packets stored in our database for station/object SR2ATJ-13. If no packets are shown the sender has not sent any weather packets the latest 10 day(s).
| Time | Temp. | Humidity | Pressure | Rain* | Wind** | Luminosity | Snow |
|---|---|---|---|---|---|---|---|
| 1777887903 | 25° C | 35% | 1011.9 hPa | - | - | - | - |
| 1777887306 | 25.56° C | 35% | 1011.7 hPa | - | - | - | - |
| 1777886704 | 25° C | 36% | 1011.7 hPa | - | - | - | - |
| 1777886103 | 25° C | 36% | 1011.8 hPa | - | - | - | - |
| 1777885503 | 24.44° C | 38% | 1011.7 hPa | - | - | - | - |
| 1777884903 | 23.33° C | 38% | 1011.6 hPa | - | - | - | - |
| 1777883703 | 23.89° C | 37% | 1011.5 hPa | - | - | - | - |
| 1777883103 | 23.89° C | 37% | 1011.6 hPa | - | - | - | - |
| 1777879503 | 21.11° C | 39% | 1011.5 hPa | - | - | - | - |
| 1777878906 | 21.67° C | 39% | 1011.2 hPa | - | - | - | - |
| 1777878303 | 20.56° C | 40% | 1011.3 hPa | - | - | - | - |
| 1777877703 | 20° C | 43% | 1011.3 hPa | - | - | - | - |
| 1777876503 | 20° C | 42% | 1011.3 hPa | - | - | - | - |
| 1777875903 | 20.56° C | 42% | 1011.1 hPa | - | - | - | - |
| 1777874703 | 18.89° C | 44% | 1011.1 hPa | - | - | - | - |
| 1777874103 | 18.89° C | 45% | 1011 hPa | - | - | - | - |
| 1777873503 | 17.78° C | 47% | 1011 hPa | - | - | - | - |
| 1777872903 | 17.22° C | 47% | 1011.1 hPa | - | - | - | - |
| 1777872303 | 16.67° C | 50% | 1011.2 hPa | - | - | - | - |
| 1777871703 | 15.56° C | 52% | 1011.1 hPa | - | - | - | - |
| 1777870503 | 13.89° C | 54% | 1011.1 hPa | - | - | - | - |
| 1777869903 | 13.33° C | 55% | 1011 hPa | - | - | - | - |
| 1777869303 | 12.78° C | 56% | 1011 hPa | - | - | - | - |
| 1777868703 | 12.78° C | 56% | 1011 hPa | - | - | - | - |
| 1777868103 | 12.78° C | 56% | 1011 hPa | - | - | - | - |
* Rain since midnight (hover to see other rain measurements)
** Current wind speed in m/s (hover to see current wind gust speed)